{"data":{"norad_id":63999,"epoch":"2026-09-20T12:25:39.102816Z","epoch_age_seconds":142153,"freshness":"FRESH","line1":"1 63999U 25101F   26263.51781369  .00009651  00000+0  35971-3 0  9992","line2":"2 63999  43.0044 337.5095 0000999 272.8079  87.2658 15.27587232 76851","mean_motion":15.27587232,"eccentricity":9.99e-5,"inclination_deg":43.0044,"raan_deg":337.5095,"arg_perigee_deg":272.8079,"mean_anomaly_deg":87.2658,"bstar":0.00035971,"rev_number":7685,"period_min":94.266302430053,"perigee_km":482.34201058774,"apogee_km":483.71287124304,"semimajor_km":6861.1644409154,"source":"CELESTRAK","updated_at":"2026-09-21T09:00:35.180736Z"}}